Regional Weather Roundup
Issued by NWS

Home | Current Version | Previous Version | Graphics & Text | Print | Product List | Glossary Off
Versions: 1 2 3 4 5 6 7 8 9 10 11 12 13 14 15 16 17 18 19 20 21 22 23 24 25 26 27 28 29 30 31 32 33 34 35 36 37 38 39 40 41 42 43 44 45 46 47 48 49 50

547
ASUS43 KMKX 212200
RWRWI

WISCONSIN REGIONAL WEATHER ROUNDUP
NATIONAL WEATHER SERVICE MILWAUKEE/SULLIVAN WI
400 PM CST TUE NOV 21 2017

NOTE: "FAIR" INDICATES FEW OR NO CLOUDS BELOW 12,000 FEET WITH NO
SIGNIFICANT WEATHER AND/OR OBSTRUCTIONS TO VISIBILITY.

WIZ001-002-006>008-014>016-023>028-212300-
NORTHWEST WISCONSIN

CITY           SKY/WX    TMP DP  RH WIND       PRES   REMARKS
SUPERIOR ARPT  CLEAR     25  10  52 NW14      30.16R WCI  13
ASHLAND        MOCLDY    24   9  52 NW14G21   30.11R WCI  12
HAYWARD        CLEAR     26   7  44 NW8       30.11R WCI  18
SIREN          PTCLDY    28   8  42 NW13G18   30.15R WCI  17
CUMBERLAND     CLEAR     27   7  43 NW18      30.12R WCI  13
RICE LAKE      CLEAR     28  10  45 W13       30.14R WCI  18
CHETEK         CLEAR     28  11  49 NW6       30.11R WCI  21
LADYSMITH      CLEAR     27  10  49 NW15G22   30.09R WCI  15
EAU CLAIRE     NOT AVBL
MENOMONIE      CLEAR     29  11  46 W15       30.15R WCI  18
NEW RICHMOND   CLEAR     29   9  44 NW15      30.16R WCI  17
OSCEOLA        CLEAR     29  10  44 NW13      30.20R WCI  19
$$

WIZ003>005-009-010-017-018-212300-
NORTH CENTRAL WISCONSIN

CITY           SKY/WX    TMP DP  RH WIND       PRES   REMARKS
MANITOWISH WTR FLURRIES  19  13  77 NW10G24   30.01R WCI   7
ARBOR VITAE    FLURRIES  22  14  73 NW17G24   30.01R WCI   7
WOODRUFF       FLURRIES  22  14  73 NW17G24   30.01R WCI   7
RHINELANDER    CLOUDY    21  11  65 NW14G23   30.02R WCI   8
EAGLE RIVER    FLURRIES  19  11  69 N12G21    30.00R WCI   7
LAND O LAKES   FLURRIES  19  12  74 NW8G21    30.00R WCI   9
PHILLIPS       PTCLDY    22  10  57 N8        30.04R WCI  13
TOMAHAWK       CLOUDY    22  11  64 NW15      30.03R WCI   8
MEDFORD        PTCLDY    24  11  57 NW16G22   30.03R WCI  11
MERRILL        CLOUDY    24  12  60 NW14G20   30.04R WCI  12
$$

WIZ029-030-035-036-043>047-212300-
CENTRAL WISCONSIN

CITY           SKY/WX    TMP DP  RH WIND       PRES   REMARKS
WAUSAU         CLOUDY    25  12  58 NW14G25   30.02R WCI  13
MOSINEE        CLOUDY    25  14  63 NW20G25   30.04R WCI  11
MARSHFIELD     PTCLDY    25  11  55 NW18G24   30.04R WCI  11
STEVENS POINT  CLOUDY    26  11  54 NW12G22   30.02R WCI  15
WAUPACA        CLEAR     31  12  45 NW15G23   30.01R WCI  21
WAUTOMA        PTCLDY    28  14  55 NW15      30.05R WCI  16
WISC RAPIDS    CLOUDY    28  12  51 NW16G25   30.06R WCI  16
CAMP DOUGLAS   PTCLDY    28  12  50 NW18      30.07R WCI  16
$$

WIZ011>013-019>022-031-037>040-048>050-212300-
NORTHEAST WISCONSIN

CITY           SKY/WX    TMP DP  RH WIND       PRES   REMARKS
ANTIGO         FLURRIES  23  13  65 NW17G30   29.98R WCI   9
SHAWANO        CLOUDY    31  14  51 NW9G25    30.00R WCI  22
OCONTO         CLOUDY    30  14  51 NW10G17   29.98R WCI  21
STURGEON BAY   CLOUDY    30  17  58 NW15G23   29.97R WCI  19
GREEN BAY      CLOUDY    31  17  56 NW18      29.99R WCI  19
MANITOWOC      CLOUDY    31  16  54 NW20      29.99R WCI  19
APPLETON       MOCLDY    30   9  40 NW17G24   29.98R WCI  18
CLINTONVILLE   CLOUDY    30  12  47 NW12G21   30.00R WCI  21
OSHKOSH        PTCLDY    29  13  51 NW12G21   30.00R WCI  19
$$

WIZ032>034-041-042-053>061-212300-
SOUTHWEST WISCONSIN

CITY           SKY/WX    TMP DP  RH WIND       PRES   REMARKS
LA CROSSE      CLEAR     30  14  51 NW14      30.14R WCI  19
SPARTA         PTCLDY    30  14  51 NW15      30.11R WCI  19
VIROQUA        PTCLDY    28  16  61 NW20      30.08R WCI  15
BOSCOBEL       CLEAR     32  13  45 NW16G23   30.12R WCI  21
PRAIRIE DU CHI CLEAR     31  12  44 NW15G24   30.12R WCI  21
PLATTEVILLE    CLEAR     32  18  56 NW16G23   30.06R WCI  21
$$

WIZ056-057-062-063-064-067-068-212300-
SOUTH CENTRAL WISCONSIN

CITY           SKY/WX    TMP DP  RH WIND       PRES   REMARKS
REEDSBURG      CLEAR     29  12  49 NW15G25   30.05R WCI  18
BARABOO/DELLS  CLEAR     29  11  47 NW15G22   30.04R WCI  18
LONE ROCK      NOT AVBL
MINERAL POINT  CLEAR     32  16  51 NW15G24   30.04R WCI  22
MADISON        PTCLDY    29  13  51 NW16G29   30.04R WCI  17
MIDDLETON      CLEAR     32  17  53 N16G22    30.03R WCI  21
WATERTOWN      CLOUDY    30  15  54 NW15G24   30.01R WCI  19
MONROE         PTCLDY    32  16  51 NW12G23   30.02R WCI  23
JANESVILLE     PTCLDY    36  18  48 NW15G21   30.01R WCI  26
$$

WIZ051-052-058>065-066-070>072-212300-
SOUTHEAST WISCONSIN

CITY           SKY/WX    TMP DP  RH WIND       PRES   REMARKS
MILWAUKEE      MOCLDY    33  16  49 NW16G26   30.00R WCI  23
WAUKESHA       CLOUDY    28  14  54 NW16G26   30.01R WCI  17
MILWAUKEE/TIMM CLOUDY    30  12  47 NW22      30.01R WCI  17
RACINE         CLOUDY    33  16  49 N17G28    30.01R WCI  22
BURLINGTON     CLEAR     35  20  56 NW15      29.99R WCI  25
KENOSHA        MOCLDY    34  16  47 NW17G25   30.00R WCI  23
FOND DU LAC    PTCLDY    30  12  47 NW16G23   30.01R WCI  19
SHEBOYGAN      CLOUDY    30  15  53 NW21G26   29.98R WCI  17
WEST BEND      CLOUDY    30  14  51 NW16G23   29.98R WCI  19
JUNEAU         MOCLDY    28  13  53 NW15G28   30.02R WCI  16
$$

LSZ147-162-212300-
LAKE SUPERIOR

STATION/POSITION TIME  TEMP    WIND        PRES    WAVE
                       AIR SEA DIR/SP/G            HT/PER
                 (UTC) (F)     (DEG/KT/KT) (MB)    (FT/S)
DEVILS ISLAND    2100   23     310/ 25/ 28 1019.7R
SAXON HARBOR     2130   26     310/ 16/ 21 1019.0R
$$

LMZ867-665-643>646-212300-
LAKE MICHIGAN

STATION/POSITION TIME  TEMP    WIND        PRES    WAVE
                       AIR SEA DIR/SP/G            HT/PER
                 (UTC) (F)     (DEG/KT/KT) (MB)    (FT/S)
N MID LAKE BUOY  2050   31 47  300/ 23/ 27 1012.0R   6/ 6
NORTHPORT PIER   2140   31     320/ 21/ 28 1013.9R
KEWAUNEE LAKESHO 2130   31     320/ 12/ 18 1013.5R
SHEBOYGAN LAKESH 2100   32     320/ 21/ 25 1014.2R
PORT WASHINGTON  2130   32     310/ 10/ 16 1016.3R
MILWAUKEE LAKESH 2130   33     320/ 12/ 23   N/A
S MID LAKE BUOY  2050   36 47  340/ 25/ 29 1012.4R   7/ 6
KENOSHA   LAKESH 2100   33     320/ 17/ 21 1014.6
$$

TC  - TEMPERATURE IN CELSIUS
VSB - VISIBILITY IN STATUTE MILES
WCI - WIND CHILL INDEX
HX  - HEAT INDEX





USA.gov is the U.S. government's official web portal to all federal, state and local government web resources and services.